Regional Weather Roundup
Issued by NWS

Home | Current Version | Previous Version | Graphics & Text | Print | Product List | Glossary Off
Versions: 1 2 3 4 5 6 7 8 9 10 11 12 13 14 15 16 17 18 19 20 21 22 23 24 25 26 27 28 29 30 31 32 33 34 35 36 37 38 39 40 41 42 43 44 45 46 47 48 49 50

000
ASUS43 KLSX 172259
RWRMO

WEATHER SUMMARY FOR MISSOURI
NATIONAL WEATHER SERVICE SPRINGFIELD MO
600 PM CDT WED SEP 17 2014

NOTE: "FAIR" INDICATES FEW OR NO CLOUDS BELOW 12,000 FEET WITH NO
       SIGNIFICANT WEATHER AND/OR OBSTRUCTIONS TO VISIBILITY.
       CURRENT SKY AND/OR WEATHER CONDITIONS ARE NOT AVAILABLE FOR
       CHILLICOTHE AND FARMINGTON.

MOZ001>031-035>038-043-044-053-054-180000-
...NORTHERN AND WESTERN MISSOURI...

CITY           SKY/WX    TMP DP  RH WIND       PRES   REMARKS
KANSAS CTY INT MOSUNNY   73  66  78 SE6       29.90F
KANSAS C DTWN  CLOUDY    74  66  76 NE5       29.88F
LEE`S SUMMIT   CLOUDY    73  66  78 VRB3      29.90S
ST JOSEPH      MOSUNNY   78  65  63 CALM      29.89S
KIRKSVILLE     MOSUNNY   69  62  78 E9        29.93S

$$
MOZ066>068-077>081-088>096-101>105-180000-
...SOUTHWEST MISSOURI...

CITY           SKY/WX    TMP DP  RH WIND       PRES   REMARKS
SPRINGFIELD    MOSUNNY   69  64  84 S12       29.91F
JOPLIN         MOSUNNY   71  67  87 S12       29.87F THUNDER

$$
MOZ032>034-039>042-045>050-055>058-069>072-180000-
...CENTRAL MISSOURI...

CITY           SKY/WX    TMP DP  RH WIND       PRES   REMARKS
COLUMBIA       CLOUDY    63  62  97 NE6       29.92R FOG
JEFFERSON CITY CLOUDY    68  63  84 E8        29.91R
ROLLA          FOG       66  62  87 SE6       29.92R VSB 1/2
SEDALIA        CLOUDY    72  67  84 NE6       29.91R
WHITEMAN AFB   PTSUNNY   71  67  88 NE6       29.90R
OSAGE BEACH    CLOUDY    73  64  73 NE5       29.91R

$$
MOZ051-052-059>065-180000-
...EAST CENTRAL MISSOURI...

CITY           SKY/WX    TMP DP  RH WIND       PRES   REMARKS
ST LOUIS INTL  CLOUDY    65  56  72 E8        29.95R
SPIRIT OF STL  CLOUDY    65  58  78 SE5       29.93R
ST CHARLES     CLOUDY    62  57  83 E6        29.94R

$$
MOZ072>076-082>087-097>100-106>115-180000-
...SOUTH CENTRAL AND SOUTHEAST MISSOURI...

CITY           SKY/WX    TMP DP  RH WIND       PRES   REMARKS
CAPE GIRARDEAU CLOUDY    66  58  75 S5        29.96R
FARMINGTON     CLOUDY    61  57  88 S5        29.98R
POPLAR BLUFF   CLOUDY    64  58  80 NE3       29.95R
WEST PLAINS    MOSUNNY   65  61  87 SW5       29.93F

$$



USA.gov is the U.S. government's official web portal to all federal, state and local government web resources and services.